Rogers, AR

8:29 AM CDT on May 29, 2017 (GMT -0500)
Rogers Municipal-Carter

Weather History for KROG - October, 2014

Change the Weather History Date:

Saturday, October 4, 2014

  Actual Average Record
Temperature  
Mean Temperature 50 °F -  
Max Temperature 62 °F 70 °F 86 °F (2000)
Min Temperature 39 °F 50 °F 39 °F (1999)
Degree Days  
Heating Degree Days 14    
Moisture  
Dew Point 36 °F    
Average Humidity 63    
Maximum Humidity 93    
Minimum Humidity 32    
Precipitation  
Precipitation 0.00 in - - ()
Sea Level Pressure  
Sea Level Pressure 30.09 in    
Wind  
Wind Speed 7 mph (WSW)    
Max Wind Speed 13 mph    
Max Gust Speed 22 mph    
Visibility 10 miles    
Events      
Averages and records for this station are not official NWS values.
T = Trace of Precipitation, MM = Missing Value Source: NWS Daily Summary

Daily Weather History Graph

Daily Weather History Graph

Search for Another Location

Airport or City:

Trip Planner

Search our weather history database for the weather conditions in past years. The results will help you decide how hot, cold, wet, or windy it might be!

Date:

Astronomy

Oct. 04, 2014 Rise Set
Actual Time 7:14 AM CDT 6:55 PM CDT
Civil Twilight 6:48 AM CDT 7:21 PM CDT
Nautical Twilight 6:18 AM CDT 7:51 PM CDT
Astronomical Twilight 5:48 AM CDT 8:20 PM CDT
Moon 4:27 PM CDT (10/4) 2:49 AM CDT (10/4)
Length of Visible Light 12h 32m
Length of Day
11h 41m
Waxing Gibbous, 81% of the Moon is Illuminated
Oct 4
Waxing Gibbous
Oct 8
Full
Oct 15
Last Quarter
Oct 23
New
Oct 30
First Quarter

Hourly Weather History & Observations

Time (CDT) Temp. Windchill Dew Point Humidity Pressure Visibility Wind Dir Wind Speed Gust Speed Precip Events Conditions
12:57 AM 43.0 °F 38.8 °F 37.0 °F 80% 30.16 in 10.0 mi SW 6.9 mph - N/A   Clear
1:57 AM 41.0 °F 35.8 °F 37.0 °F 86% 30.16 in 10.0 mi SW 8.1 mph - N/A   Clear
2:57 AM 41.0 °F 36.4 °F 37.0 °F 86% 30.16 in 10.0 mi SW 6.9 mph - N/A   Clear
3:08 AM 41.0 °F 37.1 °F 37.4 °F 87% 30.16 in 2.5 mi SW 5.8 mph - N/A   Clear
3:18 AM 39.2 °F 34.2 °F 37.4 °F 93% 30.16 in 10.0 mi SW 6.9 mph - N/A   Clear
3:57 AM 42.1 °F 37.7 °F 36.0 °F 79% 30.15 in 10.0 mi WSW 6.9 mph - N/A   Clear
4:57 AM 39.9 °F 35.1 °F 36.0 °F 86% 30.16 in 10.0 mi SW 6.9 mph - N/A   Clear
5:57 AM 39.9 °F 35.1 °F 36.0 °F 86% 30.15 in 10.0 mi SW 6.9 mph - N/A   Clear
6:57 AM 39.9 °F 36.7 °F 35.1 °F 83% 30.17 in 10.0 mi West 4.6 mph - N/A   Clear
7:57 AM 41.0 °F 38.0 °F 37.0 °F 86% 30.16 in 10.0 mi West 4.6 mph - N/A   Clear
8:57 AM 46.9 °F - 37.0 °F 68% 30.16 in 10.0 mi West 5.8 mph - N/A   Clear
9:57 AM 52.0 °F - 36.0 °F 54% 30.16 in 10.0 mi WNW 11.5 mph - N/A   Clear
10:57 AM 55.0 °F - 30.9 °F 40% 30.15 in 10.0 mi West 9.2 mph - N/A   Clear
11:57 AM 57.0 °F - 30.0 °F 36% 30.14 in 10.0 mi WNW 9.2 mph - N/A   Clear
12:57 PM 57.9 °F - 30.9 °F 36% 30.11 in 10.0 mi West 10.4 mph 18.4 mph N/A   Clear
1:57 PM 60.1 °F - 30.0 °F 32% 30.09 in 10.0 mi WNW 12.7 mph 21.9 mph N/A   Clear
2:57 PM 61.0 °F - 33.1 °F 35% 30.06 in 10.0 mi WNW 12.7 mph 19.6 mph N/A   Clear
3:57 PM 61.0 °F - 34.0 °F 36% 30.03 in 10.0 mi WNW 8.1 mph - N/A   Clear
4:57 PM 62.1 °F - 33.1 °F 34% 30.02 in 10.0 mi West 10.4 mph - N/A   Clear
5:57 PM 60.1 °F - 37.0 °F 42% 30.01 in 10.0 mi West 4.6 mph - N/A   Clear
6:57 PM 57.9 °F - 39.0 °F 49% 30.00 in 10.0 mi Calm Calm - N/A   Clear
7:57 PM 53.1 °F - 41.0 °F 64% 29.99 in 10.0 mi Calm Calm - N/A   Clear
8:57 PM 51.1 °F - 41.0 °F 68% 29.98 in 10.0 mi SSE 4.6 mph - N/A   Clear
9:57 PM 52.0 °F - 39.9 °F 63% 29.97 in 10.0 mi SE 4.6 mph - N/A   Clear
10:57 PM 50.0 °F - 41.0 °F 71% 29.96 in 10.0 mi SSE 6.9 mph - N/A   Clear
11:57 PM 52.0 °F - 42.1 °F 69% 29.94 in 10.0 mi SSE 5.8 mph - N/A   Overcast